Inquirer Daily News

Weather

Get conditions and forecasts for any City, State, ZIP code or Country:  
Northeast Philadelphia, PA
on Saturday, December 29, 2012

Saturday
Previous Day Next Day
Daily Summary
 ActualAverage (KTTN)Record (KTTN)
Temperature
Mean Temperature °F 32°F  
Max Temperature 33°F 40°F 73°F (1984)
Min Temperature 28°F 24°F -4°F (1917)
Degree Days
Heating Degree Days 34 33  
Month to date heating degree days 853  
Since 1 July heating degree days 1829  
Cooling Degree Days 0 0  
Month to date cooling degree days 0  
Year to date cooling degree days 965  
Moisture
Dew Point 28°F   
Average Humidity 86    
Maximum Humidity 96    
Minimum Humidity 72    
Precipitation
Precipitation 0.24 in 0.08 in 1.95 in (1901)
Month to date precipitation 3.53  
Year to date precipitation 46.27  
Wind
Wind Speed 6 mph   
Max Wind Speed 13 mph   
Max Gust Speed 18 mph   
Visibility 6 miles   
Events Fog , Rain , Snow   

Key: T is trace of precipitation, MM is missing value
Source: NWS Daily Summary
Time(EST)TemperatureDew PointHumidity Pressure Visibility Wind DirectionWind SpeedGust SpeedPrecipitationEvents Conditions
12:54 AM 30.0°F 23.0°F 75% 30.06 in 10.0 miles NNE 5.8 mph - N/A   Clear
1:54 AM 30.0°F 21.9°F 72% 30.06 in 10.0 miles NNE 3.5 mph - N/A   Clear
2:54 AM 30.0°F 21.9°F 72% 30.05 in 10.0 miles Calm Calm - N/A   Clear
3:54 AM 28.9°F 23.0°F 78% 30.04 in 10.0 miles NNE 4.6 mph - N/A   Clear
4:54 AM 28.9°F 23.0°F 78% 30.00 in 10.0 miles ENE 3.5 mph - N/A   Scattered Clouds
5:54 AM 30.0°F 24.1°F 79% 29.95 in 10.0 miles East 6.9 mph - N/A   Overcast
6:54 AM 30.0°F 24.1°F 79% 29.92 in 10.0 miles East 6.9 mph - N/A   Mostly Cloudy
7:54 AM 30.9°F 25.0°F 79% 29.91 in 10.0 miles NE 4.6 mph - N/A   Overcast
8:54 AM 30.9°F 25.0°F 79% 29.86 in 10.0 miles NE 6.9 mph - N/A   Overcast
9:13 AM 32.0°F 26.6°F 80% 29.83 in 10.0 miles NE 9.2 mph - N/A   Overcast
9:54 AM 32.0°F 26.1°F 79% 29.82 in 10.0 miles ENE 5.8 mph - N/A   Overcast
10:44 AM 33.8°F 28.4°F 81% 29.79 in 1.8 miles NE 6.9 mph - 0.00 in Snow Light Snow
10:54 AM 33.1°F 28.9°F 85% 29.78 in 2.0 miles NE 5.8 mph - 0.00 in Snow Light Snow
11:06 AM 32.0°F 28.4°F 87% 29.77 in 1.2 miles NE 5.8 mph - 0.01 in Snow Light Snow
11:17 AM 32.0°F 28.4°F 87% 29.77 in 0.5 miles NE 5.8 mph - 0.01 in Fog , Snow Snow
11:33 AM 32.0°F 30.2°F 93% 29.75 in 0.2 miles NE 4.6 mph - 0.04 in Fog , Snow Snow
11:54 AM 32.0°F 30.0°F 92% 29.73 in 0.5 miles NE 4.6 mph - 0.06 in Fog , Snow Light Snow
12:13 PM 32.0°F 30.2°F 93% 29.71 in 1.0 miles NE 4.6 mph - 0.01 in Snow Light Snow
12:26 PM 32.0°F 30.2°F 93% 29.69 in 1.0 miles NE 4.6 mph - 0.03 in Snow Light Snow
12:54 PM 32.0°F 30.9°F 96% 29.67 in 1.2 miles NE 5.8 mph - 0.07 in Snow Light Snow
1:10 PM 33.8°F 30.2°F 87% 29.65 in 2.5 miles NE 5.8 mph - 0.01 in Rain Light Rain
1:54 PM 33.1°F 32.0°F 96% 29.63 in 2.0 miles Calm Calm - 0.08 in Rain Light Rain
2:54 PM 33.1°F 30.9°F 92% 29.60 in 2.5 miles North 5.8 mph - 0.02 in Rain Light Rain
3:01 PM 33.8°F 30.2°F 87% 29.59 in 2.5 miles North 6.9 mph - 0.00 in Rain Light Rain
3:20 PM 33.8°F 30.2°F 87% 29.58 in 2.5 miles NNW 5.8 mph - 0.00 in Rain Light Rain
3:41 PM 33.8°F 30.2°F 87% 29.56 in 2.5 miles North 6.9 mph - 0.01 in Rain Light Rain
3:51 PM 33.8°F 30.2°F 87% 29.56 in 2.5 miles North 6.9 mph - 0.01 in   Overcast
3:54 PM 33.1°F 30.9°F 92% 29.56 in 2.5 miles North 6.9 mph - 0.01 in   Overcast
4:01 PM 33.8°F 30.2°F 87% 29.56 in 2.5 miles North 5.8 mph - 0.00 in   Overcast
4:31 PM 33.8°F 30.2°F 87% 29.55 in 2.5 miles North 3.5 mph - 0.00 in   Overcast
4:54 PM 32.0°F 30.0°F 92% 29.55 in 2.5 miles North 5.8 mph - 0.00 in   Overcast
5:04 PM 32.0°F 30.2°F 93% 29.55 in 2.5 miles NNW 5.8 mph - N/A   Overcast
5:54 PM 32.0°F 30.2°F 93% 29.55 in 2.5 miles NNW 6.9 mph - N/A Snow Light Snow
6:15 PM 33.8°F 30.2°F 87% 29.56 in 2.5 miles NW 6.9 mph - N/A   Overcast
6:24 PM 33.8°F 30.2°F 87% 29.56 in 8.0 miles NW 6.9 mph - N/A   Overcast
6:43 PM 32.0°F 30.2°F 93% 29.56 in 9.0 miles NW 8.1 mph - N/A   Overcast
6:54 PM 33.1°F 30.0°F 89% 29.56 in 9.0 miles NW 8.1 mph - N/A   Overcast
7:02 PM 33.8°F 30.2°F 87% 29.56 in 9.0 miles WNW 8.1 mph - N/A   Overcast
7:31 PM 32.0°F 30.2°F 93% 29.57 in 8.0 miles WNW 5.8 mph - N/A   Overcast
7:54 PM 32.0°F 28.9°F 88% 29.58 in 9.0 miles WNW 10.4 mph - N/A   Overcast
8:40 PM 30.2°F 28.4°F 93% 29.60 in 10.0 miles NW 9.2 mph - N/A   Overcast
8:54 PM 32.0°F 28.0°F 85% 29.60 in 10.0 miles NW 10.4 mph - N/A   Overcast
9:04 PM 32.0°F 28.4°F 87% 29.61 in 10.0 miles WNW 10.4 mph 18.4 mph N/A   Overcast
9:54 PM 32.0°F 27.0°F 82% 29.64 in 10.0 miles WNW 12.7 mph - N/A   Scattered Clouds
10:54 PM 30.9°F 25.0°F 79% 29.68 in 10.0 miles WNW 11.5 mph - N/A   Mostly Cloudy
11:54 PM 32.0°F 24.1°F 73% 29.70 in 10.0 miles WNW 10.4 mph - N/A   Mostly Cloudy
Astronomy
Sunrise:07:21 AM (EST) Moon Rise:06:13 PM (EST)12/29
Sunset:04:43 PM (EST) Moon Set:07:53 AM (EST)12/29
Moon Phase
Dec. 29 Jan. 04 Jan. 11 Jan. 18 Jan. 26

Copyright © 2014 The Weather Underground, Inc.